Location: Eastmont
(34.0236°N, 118.1551°W)
Time: 02:27:19
(UTC+00:00)

Daily predictions for brighter satellites

Satellite Brightness Start Highest point End
(mag) Time Altitude Azimuth Time Altitude Azimuth Time Altitude Azimuth
DELTA 2 R/B (1) 4.0 01:33:12 10° WNW 01:38:37 49° N 01:44:03 10° E
Cosmos 1340 Rocket 4.2 01:35:58 10° NNW 01:39:47 44° W 01:43:36 10° SSW
Cosmos 1825 Rocket 3.8 01:36:15 10° S 01:40:35 76° W 01:44:55 10° N
Cosmos 2297 Rocket 3.5 01:35:51 10° SW 01:41:08 41° WNW 01:46:28 10° N
Atlas Centaur 2 2.1 01:41:00 10° WSW 01:44:54 50° S 01:49:43 10° E
Cosmos 2263 Rocket 3.5 01:44:53 10° SE 01:48:43 19° E 01:52:34 10° NE
USA 116 4.3 01:47:05 10° NE 01:49:41 24° E 01:52:19 10° SSE
Cosmos 2218 Rocket 4.0 01:47:05 10° S 01:53:24 76° E 01:59:47 10° N
Cosmos 2227 Rocket 3.8 01:49:21 10° SW 01:54:29 35° WNW 01:59:38 10° N
H-2A ROCKET BODY 3.3 01:45:37 10° W 01:58:18 49° SSW 02:01:49 10° ESE
Cosmos 1703 3.3 01:54:26 10° S 01:58:23 88° E 02:02:22 10° N
Cosmos 2221 4.0 01:56:04 10° NE 01:58:42 16° ENE 02:01:21 10° ESE
OAO 3 Rocket 3.8 01:55:06 10° SW 01:59:29 43° SSE 02:03:28 12° E
Okean-O 2.6 01:55:05 10° SSE 01:59:30 86° ENE 02:03:57 10° NNW
Cosmos 1356 Rocket 4.1 01:59:31 10° NNE 02:03:12 31° ENE 02:06:53 10° SE
Cosmos 1959 Rocket 4.5 01:57:47 10° S 02:03:58 90° W 02:10:07 10° N
Cosmos-2242 3.3 02:01:06 10° N 02:05:23 73° W 02:09:37 10° S
CZ-4 R/B 4.4 02:05:36 10° SSE 02:09:40 64° ENE 02:13:45 10° N
FengYun 1-2 T 4.3 02:06:08 10° SSE 02:11:45 86° ENE 02:17:26 10° NNW
SKYMED 2 4.0 02:07:32 10° N 02:11:50 64° WNW 02:16:07 10° SSW
CENTAUR R/B 4.0 02:11:04 10° SE 02:13:23 13° ESE 02:13:38 13° E
STARLINK-67 3.2 02:11:34 10° SSW 02:13:53 33° SE 02:14:42 25° E
Cosmos 1455 2.7 02:13:31 10° NNW 02:17:15 63° W 02:20:57 10° S
NOSS 3-2 (A) 3.9 02:12:21 10° S 02:17:17 34° ESE 02:21:09 17° ENE
YAOGAN 1 2.6 02:16:14 10° SSE 02:20:28 57° ENE 02:24:43 10° N
Cosmos 2366 rocket 4.4 02:15:05 10° SSW 02:21:14 68° W 02:27:29 10° N
CSL-04 Debris 4.2 02:17:19 10° SSE 02:22:34 58° ENE 02:27:52 10° N
Cosmos 1939 Rocket 3.1 02:20:11 10° SSE 02:23:53 43° ENE 02:27:40 10° N
OAO 1 Rocket 4.4 02:19:33 10° W 02:24:55 80° N 02:28:17 23° E
CZ-2D R/B 3.5 02:21:38 10° SSE 02:25:17 45° ENE 02:28:58 10° N
EP 3 4.2 02:28:47 10° SW 02:31:08 59° WNW 02:31:32 46° N
Cosmos 2058 3.6 02:32:46 10° SSE 02:36:17 31° E 02:36:17 31° E
USA 234 3.2 02:29:58 10° SE 02:36:29 78° NE 02:43:01 10° NW
CSL-04 Rocket 3.6 02:37:03 10° SSE 02:42:32 88° ENE 02:48:06 10° NNW
Fregat R/B Cluster 11 4.0 02:40:07 10° SW 02:42:36 69° WNW 02:48:37 10° NNE
Shenzhou-11 Module 4.3 02:41:51 10° NNW 02:42:37 13° NNW 02:42:37 13° NNW
GPS 2-05 Rocket1 3.2 02:46:47 10° WSW 02:48:39 41° SW 02:48:39 41° SW
Cosmos 2251 Rocket 4.0 02:45:01 10° NNW 02:50:15 62° WSW 02:55:30 10° S
Cosmos 44 Rocket 4.2 02:46:34 10° SW 02:51:13 46° WNW 02:55:04 14° NNE
USA 238 DEB 3.5 02:50:25 10° SSW 02:57:02 84° ESE 03:01:29 23° NNE
USA 238 3.5 02:50:33 10° SSW 02:57:10 83° ESE 03:01:32 24° NNE
Cosmos 1727 Rocket 4.4 02:51:36 10° NNW 02:57:40 64° W 03:03:44 10° S
ADEOS Rocket 3.4 02:51:04 10° NNE 02:58:06 86° ESE 03:05:44 10° SSW
Cosmos 1842 Rocket 4.0 02:58:01 10° NNW 03:02:27 63° W 03:06:52 10° S
CZ-4 R/B 3.5 03:00:55 10° SSW 03:04:24 28° W 03:07:59 10° NW
In-Cosmos 22 Rocket 4.1 03:01:01 10° S 03:06:40 65° E 03:09:08 33° NNE
OAO 2 Rocket 3.1 03:04:43 10° WSW 03:09:37 76° SSE 03:10:06 69° ESE
Cosmos 1371 Rocket 4.2 03:10:25 10° SSW 03:15:33 70° WNW 03:18:12 29° N
SL-16 R/B 4.0 03:12:52 10° NW 03:17:45 31° WSW 03:22:36 10° SSW
ATLAS CENTAUR R/B 2.0 03:14:18 10° NW 03:17:58 45° WSW 03:18:10 44° SW
DELTA 2 R/B (1) 3.4 03:19:46 10° WNW 03:25:23 88° SSW 03:25:37 82° SE
Cosmos 1603 3.6 03:25:24 10° NNW 03:30:35 75° N 03:30:35 75° N
Cosmos 2263 Rocket 3.1 03:26:54 10° SW 03:32:12 45° WNW 03:35:10 24° N
Atlas Centaur 2 2.4 03:29:01 10° W 03:33:12 51° SSW 03:33:12 51° SSW
Cosmos 2221 4.2 03:32:29 10° NNW 03:36:18 32° W 03:40:08 10° SSW
Ariane Rocket 3.4 03:33:15 10° S 03:38:14 60° WSW 03:43:16 10° NNW
Cosmos 1605 Rocket 4.3 03:33:16 10° S 03:37:56 52° SSE 03:37:56 52° SSE
OAO 3 Rocket 4.2 03:38:10 10° W 03:41:16 42° W 03:41:16 42° W
FALCON 9 R/B 2.7 03:27:31 10° WSW 03:43:36 79° S 03:44:00 76° SE
ATLAS 3B R/B 3.4 03:39:02 10° SSW 03:43:13 38° S 03:43:13 38° S
NOSS 3-2 (C) 3.5 03:44:18 10° SW 03:49:20 66° W 03:49:20 66° W
Cosmos 2123 Rocket 4.4 03:55:44 10° NNW 04:07:56 10° S 04:08:02 10° S
CENTAUR R/B 3.2 03:57:12 10° SW 04:00:54 44° SW 04:00:54 44° SW
